Showing default

MIDAS 5 (STRONGBACK), 271

Orbit data source: Space-Track

MIDAS 5 (STRONGBACK), 271 is a payload satellite owned by USAF SSD (US) in LEO that was launched on Mon, 09 Apr 1962 UTC via an ATLAS AGENA B launch vehicle from the Air Force Western Test Range (AFWTR). Payload-class satellites include a variety of spacecraft equipped with specific instruments for various scientific and technological missions. These include communications satellites like Starlink; space stations such as the ISS; scientific satellites like the Hubble; Earth observation satellites from companies like Planet Labs, Umbra, and HawkEye 360; GPS; miniature CubeSats for education and research; and military/defense satellites.

Loading next visibility...
Identifier
271, 1962-010A
Orbit
LEO
Country
Flag of USUS
Related business
Manufacturer
LMSC
Mission
Spacecraft
Bus & Motor
MIDAS, Unknown motor
Mass
~1,543 kg wet, ~840 kg dry
Launch date (UTC)
1962-04-09 (64 years ago)
Launch vehicle
ATLAS AGENA B
Launch site
Air Force Western Test Range (AFWTR)
Object type
Payload
Rocket body
Debris
Shape & HBR
Unknown
Radar Cross Section
Large (>1 m²)

Expand to show TLE details & history
Last TLE update: 13 hours ago

TLE from 13 hours ago
0 MIDAS 5 (STRONGBACK)
1   271U 62010A   26198.60497699  .00000018  00000-0  27666-2 0  9993
2   271  86.6656 311.4580 0327511 352.3777   7.2223  9.41308245208534
Epoch: 2026-07-17T14:31Z
TLE epoch observation values (Epoch: 2026-07-17T14:31:10.011Z)
Latitude
-0.00008°
Longitude
158.2366°
Altitude
2,791.48 km
Speed
6.7 km/s
True Right ascension
20h 45m 49s
True Declination
0° 00' 00"
Sunlit
Object was in full shadow at epoch
Visualization orbit readout
Latitude
Unknown
Longitude
Unknown
Altitude
Unknown
Speed
Unknown
Apparent Right ascension
Unknown
Apparent Declination
Unknown
Sunlit
N/A
Visualization observer readout
Local Sidereal Time
15:56:13
Azimuth
Unknown
Elevation
Unknown
Doppler factor
Unknown
Orbital elements
Apogee altitude
3,404.838 km
Perigee altitude
2,784.353 km
Semi-major axis
9,472.732 km
Eccentricity
0.03275
Inclination
86.6656°
RAAN
311.458°
Arg. of periapsis
352.3777°
True anomaly
7.71406°
Mean anomaly
7.2223°
Eccentric anomaly
7.46613°
Mean motion
2.35413 °/min
Orbital period
152.92 mins
BSTAR
0.0027666
Loading maneuver chart data...
Computing Atmospheric mass density...
Loading historical data...
Loading historical data...
Loading historical data...
Loading historical data...
Loading historical data...
Loading historical data...
Loading historical data...

Documentation

Showing up to 5 results
|